Retour au catalogue

STARLINK-6098

ActifCommunicationsVLEO
NORAD 56906·PAYLOAD·🇺🇸 United States

Lancé Jun 12, 2023 depuis Cape Canaveral Space Force Station

Loading…

Prochains Passages (prochaines 24 heures)

TLE

FraisSource: CelesTrak SupGP

Époque: Sep 15, 2026, 01:50 UTC

1 56906C 23083AG  26258.07687500  .00005193  00000+0  18806-3 0  2589
2 56906  43.0009  80.8503 0001530 256.9879 175.5651 15.27579963    18

Suivez STARLINK-6098 en temps réel avec AllMySat

Download on the App Store